User: anonymous   Login
Location: *
(38.3914°N, 75.0697°W)
Time: 06:01:47
(UTC+00:00)
Language:

STARLINK-64 - Orbit

View from above orbital plane
View from above orbital plane
View from above satellite
View from above satellite

Ground track
Ground track

The orbit data is extracted from the following two-line orbital elements,

1 44275U 19029AS  20152.60742549 +.00005671 +00000-0 +16028-3 0  9999
2 44275 052.9935 263.8642 0004617 255.2671 104.7820 15.37889575056083
Epoch (UTC): 31 May 2020 14:34:41
Eccentricity: 0.0004617
inclination: 52.9935°
perigee height: 449 km
apogee height: 455 km
right ascension of ascending node: 263.8642°
argument of perigee: 255.2671°
revolutions per day: 15.37889575
mean anomaly at epoch: 104.7820°
orbit number at epoch: 5608

The dashed part of the orbit path shows where the satellite is in the earth's shadow,  

DLR